Location: Black Swamp Observatory
(41.3920°N, 84.1250°W)
Time: 22:05:29
(UTC-05:00)

Explorer 7 - All Passes

Search period start: 27 January 2022 00:00
Search period end: 06 February 2022 00:00
Orbit: 483 x 674 km, 50.3° (Epoch: 27 January)

Date Brightness Start Highest point End Pass type
(mag) Time Alt. Az. Time Alt. Az. Time Alt. Az.
27 Jan - 09:08:43 10° SW 09:12:34 56° SE 09:16:41 10° ENE daylight
27 Jan - 10:49:24 10° W 10:53:12 36° NNW 10:57:15 10° NE daylight
27 Jan - 12:30:58 10° NW 12:34:34 25° N 12:38:20 10° ENE daylight
27 Jan - 14:11:38 10° NW 14:15:53 42° NNE 14:20:21 10° E daylight
27 Jan - 15:52:02 10° WNW 15:56:31 53° SW 16:01:12 10° SE daylight
28 Jan - 07:34:33 10° SSE 07:36:33 14° SE 07:38:35 10° E daylight
28 Jan - 09:12:25 10° SW 09:16:23 88° SE 09:20:35 10° ENE daylight
28 Jan - 10:53:36 10° WNW 10:57:15 30° NNW 11:01:07 10° NE daylight
28 Jan - 12:35:01 10° NW 12:38:40 26° N 12:42:31 10° ENE daylight
28 Jan - 14:15:27 10° NW 14:19:51 55° NNE 14:24:28 10° ESE daylight
28 Jan - 15:56:05 10° WNW 16:00:16 35° SW 16:04:37 10° SSE daylight
29 Jan - 07:37:05 10° S 07:40:08 22° SE 07:43:18 10° E daylight
29 Jan - 09:16:20 10° WSW 09:20:16 62° NNW 09:24:26 10° NE daylight
29 Jan - 10:57:49 10° WNW 11:01:20 26° N 11:05:02 10° NE daylight
29 Jan - 12:38:58 10° NW 12:42:45 29° NNE 12:46:44 10° ENE daylight
29 Jan - 14:19:16 10° NW 14:23:45 76° NNE 14:28:28 10° ESE daylight
29 Jan - 16:00:21 10° W 16:03:57 23° SW 16:07:40 10° S daylight
30 Jan - 07:40:16 10° SSW 07:43:48 36° SE 07:47:33 10° ENE daylight
30 Jan - 09:20:24 10° W 09:24:12 44° NNW 09:28:15 10° NE daylight
30 Jan - 11:02:00 10° WNW 11:05:26 24° N 11:09:03 10° NE daylight
30 Jan - 12:42:50 10° NW 12:46:48 34° NNE 12:50:59 10° E daylight
30 Jan - 14:23:08 10° WNW 14:27:35 75° SW 14:32:18 10° SE daylight
30 Jan - 16:05:07 10° W 16:07:35 14° SW 16:10:06 10° SSW daylight
31 Jan - 07:43:46 10° SW 07:47:33 60° SE 07:51:33 10° ENE daylight
31 Jan - 09:24:32 10° W 09:28:12 34° NNW 09:32:03 10° NE daylight
31 Jan - 11:06:06 10° NW 11:09:32 24° N 11:13:09 10° ENE daylight
31 Jan - 12:46:40 10° NW 12:50:48 42° NNE 12:55:10 10° E daylight
31 Jan - 14:27:03 10° WNW 14:31:23 49° SW 14:35:55 10° SE daylight
01 Feb - 06:09:23 10° SSE 06:11:29 14° SE 06:13:38 10° E visible
01 Feb - 07:47:30 10° WSW 07:51:22 86° NNW 07:55:26 10° ENE daylight
01 Feb - 09:28:45 10° WNW 09:32:14 28° NNW 09:35:55 10° NE daylight
01 Feb - 11:10:06 10° NW 11:13:38 25° N 11:17:20 10° ENE daylight
01 Feb - 12:50:28 10° NW 12:54:44 57° NNE 12:59:16 10° ESE daylight
01 Feb - 14:31:08 10° WNW 14:35:07 32° SW 14:39:16 10° SSE daylight
02 Feb - 06:12:01 10° S 06:15:06 24° SE 06:18:16 10° E visible
02 Feb - 07:51:26 10° WSW 07:55:15 58° NNW 07:59:16 10° NE daylight
02 Feb - 09:32:58 10° WNW 09:36:19 25° N 09:39:50 10° NE daylight
02 Feb - 11:14:02 10° NW 11:17:41 29° NNE 11:21:33 10° ENE daylight
02 Feb - 12:54:17 10° NW 12:58:37 81° NNE 13:03:14 10° ESE daylight
02 Feb - 14:35:28 10° W 14:38:47 20° SW 14:42:13 10° S daylight
03 Feb - 06:15:15 10° SSW 06:18:46 39° SE 06:22:26 10° ENE visible
03 Feb - 07:55:31 10° W 07:59:11 41° NNW 08:03:03 10° NE daylight
03 Feb - 09:37:07 10° WNW 09:40:24 23° N 09:43:51 10° NE daylight
03 Feb - 11:17:53 10° NW 11:21:43 34° NNE 11:25:47 10° E daylight
03 Feb - 12:58:08 10° WNW 13:02:27 69° SW 13:07:01 10° SE daylight
03 Feb - 14:40:27 10° WSW 14:42:24 13° SW 14:44:22 10° SSW daylight
04 Feb - 06:18:47 10° SW 06:22:31 64° SE 06:26:25 10° ENE visible
04 Feb - 07:59:40 10° W 08:03:11 32° NNW 08:06:51 10° NE daylight
04 Feb - 09:41:13 10° NW 09:44:30 23° N 09:47:57 10° ENE daylight
04 Feb - 11:21:41 10° NW 11:25:42 43° NNE 11:29:58 10° E daylight
04 Feb - 13:02:05 10° WNW 13:06:13 44° SW 13:10:35 10° SSE daylight
05 Feb - 04:44:10 10° SSE 04:46:25 15° SE 04:48:41 10° E visible
05 Feb - 06:22:33 10° WSW 06:26:20 80° NW 06:30:17 10° NE visible
05 Feb - 08:03:53 10° WNW 08:07:13 26° NNW 08:10:43 10° NE daylight
05 Feb - 09:45:12 10° NW 09:48:35 25° N 09:52:08 10° ENE daylight
05 Feb - 11:25:29 10° NW 11:29:38 59° NNE 11:34:02 10° ESE daylight
05 Feb - 13:06:12 10° WNW 13:09:56 28° SW 13:13:52 10° SSE daylight
